Regional Weather Roundup
Issued by NWS Boston, MA

Current Version | Previous Version | Text Only | Print | Product List | Glossary Off
Versions: 1 2 3 4 5 6 7 8 9 10 11 12 13 14 15 16 17 18 19 20 21 22 23 24 25 26 27

000
ASUS41 KBOX 262110
RWRBOX

REGIONAL WEATHER ROUNDUP
NATIONAL WEATHER SERVICE TAUNTON MA
500 PM EDT MON JUN 26 2017

NOTE:  "FAIR" INDICATES FEW OR NO CLOUDS BELOW 12,000 FEET WITH NO
SIGNIFICANT WEATHER AND/OR OBSTRUCTIONS TO VISIBILITY.

MAZALL-262200-
EASTERN MASSACHUSETTS

CITY           SKY/WX    TMP DP  RH WIND       PRES   REMARKS
BOSTON         PTSUNNY   77  50  38 SW10G18   29.93S
BEVERLY        MOSUNNY   75  53  46 W7        29.93S
LAWRENCE       MOSUNNY   78  53  41 SW9       29.95S
BEDFORD        MOSUNNY   78  50  37 SW8       29.92S
BLUE HILL        N/A     75  47  36 W10G18    29.94S
NORWOOD        PTSUNNY   78  50  37 SW9       29.92F
MARSHFIELD     SUNNY     73  55  53 SE8       29.94S
PLYMOUTH       PTSUNNY   76  53  44 SW15G22   29.95S
TAUNTON        SUNNY     76  53  44 S13G20    29.95S
NEW BEDFORD    SUNNY     74  57  55 S16       29.96S
$$

MAZALL-262200-
CAPE COD AND THE ISLANDS

CITY           SKY/WX    TMP DP  RH WIND       PRES   REMARKS
FALMOUTH       SUNNY     73  54  49 SW18G26   29.98F
HYANNIS        SUNNY     74  51  44 SW20      29.96S
CHATHAM        SUNNY     73  57  57 SW9G17    29.99S
PROVINCETOWN   SUNNY     74  53  48 SE10      29.96F
NANTUCKET      SUNNY     69  60  73 SW14      29.99F
MARTHAS VNYRD  SUNNY     71  54  54 SW15G22   29.99S
$$

MAZALL-262200-
CENTRAL AND WESTERN MASSACHUSETTS

CITY           SKY/WX    TMP DP  RH WIND       PRES   REMARKS
WORCESTER      PTSUNNY   73  48  41 W12       29.97S
FITCHBURG      SUNNY     78  50  37 W12       29.95S
ORANGE         PTSUNNY   73  51  46 SW5       29.94F
SPRINGFIELD    PTSUNNY   76  50  40 W8        29.93F
WESTFIELD      CLOUDY    76  50  40 W7        29.95S
NORTH ADAMS    LGT RAIN  62  58  86 NE3       29.97S
PITTSFIELD     PTSUNNY   71  48  43 SW9       29.96S
$$

RIZALL-262200-
RHODE ISLAND

CITY           SKY/WX    TMP DP  RH WIND       PRES   REMARKS
PROVIDENCE     MOSUNNY   76  56  49 SW16G25   29.96R
NEWPORT        SUNNY     72  57  59 S10G21    29.97F
BLOCK ISLAND   SUNNY     72  55  55 SW20      30.00S
WESTERLY       SUNNY     75  56  51 S15G23    29.99F
$$

CTZALL-262200-
CONNECTICUT

CITY           SKY/WX    TMP DP  RH WIND       PRES   REMARKS
BRADLEY INTL   PTSUNNY   76  51  41 W5        29.95S
HARTFORD       MOSUNNY   79  50  36 W12       29.94F
BRIDGEPORT     SUNNY     80  53  39 S12       29.97F
DANBURY        MOSUNNY   74  52  46 SW9       29.99S
GROTON         SUNNY     72  63  73 MISG        N/A
NEW HAVEN      MOSUNNY   75  55  50 SW9G17    29.98S
CHESTER        FAIR      75  50  41 SW8G16    29.99S
MERIDEN        PTSUNNY   76  51  41 SW13G20   29.96S
WILLIMANTIC    CLOUDY    77  54  44 SW9       29.96R
OXFORD         PTSUNNY   75  48  38 SW7       30.00S
$$

MEZ002-015-021-024-NHZ003-005-008-011-012-014-VTZ005-008-262200-
NORTHERN NEW ENGLAND

CITY           SKY/WX    TMP DP  RH WIND       PRES   REMARKS
PORTLAND ME    PTSUNNY   75  48  38 NW8       29.92S
BANGOR ME      PTSUNNY   70  51  51 N10       29.89F
CONCORD NH     CLOUDY    73  49  42 W6        29.93F
MANCHESTER NH  PTSUNNY   74  46  36 W8        29.92F
NASHUA NH      PTSUNNY   75  52  44 VRB3      29.94S
PORTSMOUTH NH  MOSUNNY   77  47  35 W10       29.91F
JAFFREY NH     PTSUNNY   72  51  47 VRB5      29.97S
KEENE NH       PTSUNNY   71  53  52 SW3       29.96R
BURLINGTON VT  PTSUNNY   72  46  39 VRB7      29.93F
MT. WASHINGTON PTSUNNY   43  39  87 W24         N/A
$$

NYZ052-076-262200-
EASTERN NEW YORK

CITY           SKY/WX    TMP DP  RH WIND       PRES   REMARKS
ALBANY         PTSUNNY   71  52  50 NE6       29.94F
NEW YORK CITY  MOSUNNY   77  51  40 S15       29.98S
$$

ANZALL-262200-
MARINE OBSERVATIONS

STATION/POSITION TIME  TEMP    WIND        PRES    VSBY  WAVE
                       AIR SEA DIR/SP/G                  HT/PER
                 (UTC) (F)     (DEG/KT/KT) (MB)    (MI)  (FT/S)
BOSTON BUOY      2050   65 63  140/ 12/ 14 1013.5F         1
BUZZARDS BAY     2000   66     220/ 16/ 17 1015.7F
NANTUCKET SOUND  2050      66              1015.0S         1/ 3
MASS BAY-STELLWA 2004   65 60  190/  6/  8 1013.1F         1/ 8
ISLE OF SHOALS   2000   71     240/ 14/ 15 1013.2F
S OF BLOCK IS    2055      65                N/A           3/ 7
$$

......................KEY.........................
  SKY/WX - SKY CONDITION/PRESENT WEATHER
  TMP    - TEMPERATURE IN FAHRENHEIT
  DWPT   - DEWPOINT IN FAHRENHEIT
  RH     - RELATIVE HUMIDITY IN PERCENT
  WIND   - DIRECTION AND SPEED IN MPH
  PRES   - MEAN SEA LEVEL PRESSURE IN INCHES OF HG
  WCI    - WIND CHILL INDEX
  VSB    - VISIBILITY IN MILES
  HX     - HEAT INDEX
  TC     - TEMPERATURE IN CELSIUS
  VRB    - VARIABLE WIND DIRECTION
  N/A    - NOT AVAILABLE




USA.gov is the U.S. government's official web portal to all federal, state and local government web resources and services.